[[{"header":{"parameterUnit":"m.s-1","parameterCategory":2,"la1":30.2991,"la2":30.254,"lo1":-89.0895,"lo2":-89.0444,"dy":0.0017,"dx":0.0017,"nx":28,"ny":28,"refTime":"2024-04-12T09:00:00:Z","depth":"0","parameterNumber":2,"parameterNumberName":"U-component_of_CURRENTS"},"data":[0,0,0,0,0,0,0,0,0,0,0,0,0,0,0,0,0,0,0,0,0,0,0,0,0,0,0,0,0,0,0,0,0,0,0,0,0,0,0,0,0,0,0,0,0,0,0,0,0,0,0,0,0,0,0,0,0,0,0.2321,0.2322,0,0.2406,0.2407,0.2408,0.2429,0.2429,0.2428,0.2428,0.2438,0.2439,0.244,0,0,0,0,0,0,0,0,0,0,0,0,0,0.2202,0.2204,0.232,0.2322,0.2323,0.2406,0.2407,0.2408,0.2429,0.2428,0.2428,0.2428,0.2438,0.2439,0.244,0,0,0,0,0,0,0,0,0,0,0,0,0,0.2265,0.2204,0.232,0.2345,0.2349,0.2406,0.2407,0.2408,0.2429,0.2428,0.2428,0.2427,0.2438,0.2439,0.244,0.2456,0,0,0.2443,0.2443,0,0,0,0,0,0,0,0,0.2261,0.2269,0.234,0.2344,0.2347,0.2408,0.2369,0.2421,0.2429,0.2396,0.2428,0.2427,0.2423,0.2426,0.244,0.2456,0.2457,0.2443,0.2443,0.2444,0.2444,0,0,0,0,0,0,0,0.2257,0.2265,0.2352,0.2342,0.2346,0.2362,0.2369,0.238,0.2408,0.2399,0.2401,0.2415,0.2424,0.244,0.2441,0.2457,0.2443,0.2443,0.2444,0.2444,0.2515,0.2516,0,0,0,0,0,0,0.2251,0.2261,0.2349,0.2355,0.2305,0.2364,0.2373,0.2387,0.241,0.2414,0.2415,0.2415,0.2438,0.244,0.2441,0.2484,0.2444,0.2444,0.2445,0.2514,0.2515,0.2517,0,0,0,0,0,0,0.2248,0.2258,0.2346,0.2312,0.2324,0.2367,0.2383,0.2389,0.2409,0.2423,0.2426,0.2428,0.2438,0.244,0.2468,0.2483,0.2445,0.2446,0.2512,0.2514,0.2516,0.2554,0,0,0,0,0,0,0.2244,0.2256,0.2264,0.2311,0.2326,0.2388,0.2384,0.2392,0.2419,0.242,0.2435,0.2436,0.2438,0.2467,0.2469,0.2483,0.2446,0.251,0.2513,0.2515,0.2551,0.2557,0.2562,0,0,0,0,0,0.2239,0.2255,0.2263,0.2274,0.2335,0.2389,0.2398,0.2425,0.242,0.2437,0.2452,0.2436,0.2484,0.2469,0.2471,0.2486,0.2509,0.2512,0.2515,0.2548,0.2556,0.2562,0,0,0,0,0,0,0.2204,0.2261,0.227,0.2301,0.2344,0.2394,0.2412,0.2428,0.2455,0.2451,0.2456,0.2459,0.2491,0.2486,0.247,0.2515,0.2492,0.2496,0.2517,0.2523,0.2529,0.2513,0.2447,0,0,0,0,0,0.2201,0.2229,0.2282,0.2307,0.2327,0.2368,0.2392,0.2413,0.2444,0.2456,0.2468,0.2482,0.2506,0.2512,0.253,0.2553,0.2599,0.2564,0.257,0.2574,0.2564,0.2645,0.2657,0.2526,0.2526,0.2526,0,0,0.2194,0.2229,0.2244,0.2301,0.2333,0.2374,0.2381,0.2421,0.2449,0.2451,0.2485,0.2504,0.2519,0.2552,0.2564,0.2548,0.265,0.2578,0.2582,0.2569,0.265,0.2662,0.2674,0.2528,0.2528,0.2528,0,0,0.2203,0.2224,0.2255,0.2293,0.2348,0.2377,0.2389,0.2443,0.2458,0.2499,0.2511,0.2539,0.2569,0.2587,0.2598,0.2643,0.2681,0.265,0.2658,0.2738,0.2749,0.2759,0.2899,0.2921,0.2646,0.2646,0.2646,0,0.2193,0.2238,0.2272,0.2313,0.2341,0.2378,0.2414,0.2444,0.2498,0.2512,0.2511,0.2578,0.2584,0.2631,0.2644,0.2653,0.2728,0.2631,0.2746,0.2756,0.2766,0.2906,0.293,0.2648,0.2648,0.2648,0.2648,0,0.2234,0.2265,0.2286,0.2347,0.238,0.2418,0.2462,0.2493,0.2511,0.2539,0.2589,0.2616,0.2655,0.2664,0.2663,0.2734,0.2781,0.275,0.2728,0.2782,0.2926,0.2951,0.2652,0.2651,0.265,0.265,0,0,0.223,0.23,0.2309,0.2331,0.2398,0.2428,0.2472,0.2524,0.2559,0.2596,0.2648,0.2675,0.2693,0.2706,0.2723,0.2773,0.2922,0.2788,0.2791,0.2926,0.3164,0.3146,0.3172,0.2919,0.2922,0.2924,0.3261,0,0.2254,0.2311,0.2349,0.2399,0.2428,0.247,0.2512,0.2556,0.2597,0.2659,0.2683,0.2745,0.271,0.2752,0.2792,0.2901,0.2978,0.2838,0.309,0.3098,0.3074,0.3194,0.3065,0.3347,0.3285,0.3289,0.3292,0,0.2292,0.2319,0.2362,0.2416,0.2434,0.247,0.2535,0.2582,0.2664,0.2701,0.2755,0.28,0.2897,0.285,0.3054,0.2976,0.3064,0.3133,0.3148,0.3121,0.3122,0.327,0.3393,0.3274,0.3329,0.3326,0.3323,0,0.2266,0.2332,0.2355,0.2377,0.2446,0.2469,0.2511,0.2586,0.265,0.2745,0.2831,0.2912,0.3029,0.311,0.3255,0.3178,0.3498,0.3414,0.3489,0.3493,0.3422,0.3412,0.3446,0.3544,0.3544,0.3543,0.3542,0,0.2283,0.2304,0.2342,0.2358,0.2403,0.2448,0.2522,0.2575,0.2688,0.2794,0.2856,0.2991,0.31,0.3286,0.3342,0.3536,0.3589,0.3528,0.3573,0.3439,0.3427,0.3346,0.3287,0.3555,0.3552,0.355,0.3548,0,0.2271,0.2294,0.2327,0.2377,0.2395,0.2428,0.2545,0.2607,0.272,0.2876,0.2929,0.3134,0.3369,0.3499,0.3712,0.3705,0.3747,0.3887,0.3754,0.3772,0.3629,0.3578,0.3559,0.346,0.4008,0.401,0.4011,0,0.2278,0.2285,0.233,0.2358,0.2385,0.2446,0.2499,0.2605,0.2698,0.297,0.306,0.3339,0.3498,0.3832,0.3895,0.4044,0.3871,0.3994,0.3762,0.3636,0.3615,0.3429,0.3331,0.3741,0.374,0.3739,0.3738,0,0.2299,0.2306,0.2337,0.2385,0.243,0.2484,0.2575,0.2652,0.2814,0.2955,0.3189,0.3336,0.3658,0.3758,0.396,0.4004,0.377,0.3976,0.3872,0.3431,0.3207,0.3129,0.3555,0.373,0.3731,0.3732,0.3732,0.3732,0.2334,0.2355,0.2402,0.2444,0.2482,0.253,0.2554,0.2667,0.2802,0.2994,0.3199,0.3366,0.3576,0.3813,0.3849,0.38,0.3742,0.3659,0.3636,0.348,0.3258,0.3687,0.3865,0.3866,0.3868,0.3869,0.387,0,0.2414,0.2436,0.2466,0.2507,0.2518,0.254,0.2615,0.2624,0.2726,0.2917,0.308,0.329,0.3398,0.3518,0.3581,0.3474,0.3273,0.3379,0.3069,0.3008,0.3442,0.3295,0.3322,0.3322,0.3322,0.3322,0.3322,0.3322,0.2475,0.2525,0.2516,0.2544,0.2543,0.2533,0.2543,0.2548,0.2636,0.2749,0.2848,0.2986,0.3208,0.3332,0.3259,0.3188,0.2925,0.2817,0.2794,0.3075,0.3096,0.3116,0.296,0.2916,0.2916,0.2205,0.22,0.2196]},{"header":{"parameterUnit":"m.s-1","parameterCategory":2,"la1":30.2991,"la2":30.254,"lo1":-89.0895,"lo2":-89.0444,"dy":0.0017,"dx":0.0017,"nx":28,"ny":28,"refTime":"2024-04-12T09:00:00:Z","depth":"0","parameterNumber":3,"parameterNumberName":"V-component_of_CURRENTS"},"data":[0,0,0,0,0,0,0,0,0,0,0,0,0,0,0,0,0,0,0,0,0,0,0,0,0,0,0,0,0,0,0,0,0,0,0,0,0,0,0,0,0,0,0,0,0,0,0,0,0,0,0,0,0,0,0,0,0,0,0.0081,0.008,0,0.0015,0.0014,0.0013,-0.0036,-0.0036,-0.0036,-0.0037,-0.0128,-0.013,-0.0132,0,0,0,0,0,0,0,0,0,0,0,0,0,0.0123,0.0123,0.0081,0.008,0.0079,0.0015,0.0014,0.0013,-0.0036,-0.0036,-0.0036,-0.0037,-0.0127,-0.0129,-0.0132,0,0,0,0,0,0,0,0,0,0,0,0,0,0.0085,0.0123,0.0081,0.0048,0.0045,0.0015,0.0014,0.0012,-0.0035,-0.0036,-0.0036,-0.0037,-0.0126,-0.0129,-0.0132,-0.0142,0,0,-0.0142,-0.0143,0,0,0,0,0,0,0,0,0.0087,0.0083,0.0054,0.005,0.0046,-0.0002,-0.0005,-0.004,-0.0035,-0.0006,-0.0037,-0.0037,-0.0087,-0.0093,-0.0106,-0.0146,-0.015,-0.0142,-0.0144,-0.0146,-0.0147,0,0,0,0,0,0,0,0.009,0.0086,0.0054,0.0053,0.0049,0.0022,0.0016,-0.0012,-0.0044,-0.0008,-0.0012,-0.0018,-0.0089,-0.0102,-0.0108,-0.0151,-0.0142,-0.0145,-0.0147,-0.0148,-0.0241,-0.0242,0,0,0,0,0,0,0.0103,0.0088,0.0056,0.0052,0.0067,0.0022,0.0016,0.0013,-0.0043,-0.0052,-0.0017,-0.002,-0.0097,-0.0104,-0.0112,-0.0167,-0.0146,-0.0149,-0.015,-0.0241,-0.0242,-0.0242,0,0,0,0,0,0,0.0104,0.0101,0.0059,0.0069,0.0062,0.0022,0.002,0.0012,-0.0002,-0.0049,-0.0059,-0.0024,-0.0097,-0.0107,-0.0142,-0.0169,-0.015,-0.0153,-0.024,-0.0241,-0.0242,-0.025,0,0,0,0,0,0,0.0105,0.0101,0.0105,0.007,0.0062,0.0038,0.002,0.0011,-0.0005,-0.0009,-0.0059,-0.0068,-0.0099,-0.0137,-0.0145,-0.0173,-0.0155,-0.0239,-0.0241,-0.0242,-0.0249,-0.0251,-0.0253,0,0,0,0,0,0.0107,0.0112,0.0105,0.0101,0.0068,0.0038,0.0031,0.0,-0.0004,-0.0014,-0.0046,-0.0066,-0.015,-0.0139,-0.0149,-0.0179,-0.0239,-0.024,-0.0242,-0.0249,-0.0251,-0.0253,0,0,0,0,0,0,0.0134,0.0107,0.0098,0.0096,0.0069,0.003,0.002,0.0005,-0.0027,-0.003,-0.007,-0.0081,-0.0125,-0.0142,-0.013,-0.0207,-0.0199,-0.0202,-0.0201,-0.0204,-0.0206,-0.0177,-0.0158,0,0,0,0,0,0.0143,0.0138,0.0107,0.0104,0.0093,0.006,0.0046,0.0025,-0.0007,-0.0021,-0.0056,-0.0094,-0.0137,-0.0161,-0.0196,-0.0232,-0.021,-0.0258,-0.026,-0.0261,-0.0244,-0.0237,-0.0236,-0.0246,-0.0246,-0.0246,0,0,0.0154,0.0138,0.0135,0.0109,0.0087,0.006,0.0049,0.0028,0.0002,-0.0025,-0.0068,-0.01,-0.0146,-0.0195,-0.0216,-0.0214,-0.0244,-0.0263,-0.0264,-0.0246,-0.0238,-0.0236,-0.0235,-0.0247,-0.0247,-0.0247,0,0,0.016,0.0157,0.0147,0.0124,0.0092,0.0068,0.0065,0.0026,0.0004,-0.0034,-0.0067,-0.0106,-0.0166,-0.0209,-0.0238,-0.0266,-0.0252,-0.0284,-0.0276,-0.027,-0.0268,-0.0267,-0.0221,-0.0215,-0.0287,-0.0288,-0.0288,0,0.0172,0.0157,0.0139,0.0118,0.0101,0.0072,0.0053,0.0022,-0.0024,-0.0029,-0.0048,-0.0119,-0.0176,-0.0222,-0.0251,-0.0273,-0.0243,-0.0267,-0.0271,-0.0269,-0.0267,-0.0221,-0.0214,-0.0288,-0.0288,-0.0288,-0.0288,0,0.0159,0.0148,0.0141,0.0103,0.0083,0.0065,0.0024,0.0006,-0.0018,-0.0041,-0.0075,-0.0137,-0.0164,-0.0213,-0.0253,-0.0276,-0.0249,-0.0271,-0.0261,-0.0266,-0.0217,-0.021,-0.0289,-0.0289,-0.0289,-0.0288,0,0,0.0184,0.0142,0.0139,0.0133,0.0079,0.0071,0.0028,0.0,0.0019,-0.0049,-0.0022,-0.0149,-0.0143,-0.0174,-0.0219,-0.0246,-0.0236,-0.0256,-0.0256,-0.0202,-0.0179,-0.0155,-0.0144,-0.0253,-0.0252,-0.0252,-0.0143,0,0.0179,0.0157,0.0126,0.0107,0.0097,0.0063,0.0048,0.0022,0.0008,0.0031,-0.0034,-0.0025,-0.0138,-0.012,-0.0177,-0.0204,-0.022,-0.026,-0.0188,-0.0185,-0.0157,-0.0137,-0.0161,-0.0066,-0.0136,-0.0135,-0.0134,0,0.0171,0.0164,0.0149,0.0145,0.0141,0.0131,0.0145,0.0128,0.0132,0.0138,0.0122,0.0108,0.0061,-0.0011,-0.0078,-0.009,-0.0135,-0.0172,-0.0168,-0.0134,-0.0149,-0.0077,-0.0051,-0.0253,-0.0123,-0.0124,-0.0125,0,0.0216,0.0184,0.0185,0.0174,0.0157,0.0168,0.0173,0.0174,0.0228,0.0248,0.0336,0.0243,0.0305,0.0175,0.0082,0.0017,0.0053,-0.0041,-0.0058,-0.0055,-0.0054,-0.0053,-0.0208,-0.0072,-0.0073,-0.0073,-0.0073,0,0.0231,0.0236,0.0221,0.0228,0.0281,0.0241,0.033,0.0322,0.0396,0.0534,0.0431,0.0568,0.0363,0.0359,0.018,0.0116,0.0136,-0.0032,-0.0027,-0.0057,-0.0057,-0.0216,-0.0311,-0.0069,-0.007,-0.0071,-0.0071,0,0.029,0.0259,0.0288,0.0294,0.0308,0.0364,0.0471,0.0557,0.0601,0.0797,0.0837,0.0865,0.086,0.0657,0.0527,0.033,0.0112,0.0178,0.0177,0.0177,-0.0095,-0.0187,-0.0247,-0.032,0.0147,0.0148,0.0149,0,0.032,0.0335,0.0374,0.0441,0.0458,0.0545,0.063,0.0664,0.0797,0.1018,0.1155,0.1221,0.131,0.111,0.0753,0.0471,0.0259,0.0274,0.0099,-0.0092,-0.0191,-0.0262,-0.0327,0.0109,0.0109,0.011,0.011,0,0.0422,0.0438,0.0481,0.0616,0.0711,0.0823,0.0961,0.11,0.1217,0.1389,0.1668,0.1758,0.1586,0.1314,0.0911,0.0672,0.0127,0.0277,0.0065,-0.0236,-0.0307,-0.038,0.0044,0.0115,0.0114,0.0114,0.0114,0.0113,0.0543,0.0619,0.0712,0.084,0.095,0.1143,0.1275,0.1455,0.1697,0.1978,0.2038,0.2171,0.1732,0.1173,0.086,0.0201,0.0209,-0.0047,-0.0134,-0.0181,-0.0297,0.0162,0.0235,0.0235,0.0235,0.0236,0.0236,0,0.0747,0.0832,0.0953,0.1128,0.1282,0.1284,0.1527,0.1678,0.1989,0.2198,0.239,0.2202,0.168,0.1089,0.023,-0.0177,-0.0358,-0.0398,-0.056,-0.0603,-0.0211,-0.0265,-0.028,-0.028,-0.028,-0.0279,-0.0279,-0.0279,0.0887,0.1055,0.1103,0.1406,0.1512,0.1713,0.1846,0.2061,0.2227,0.2468,0.2482,0.2458,0.1956,0.0553,-0.0416,-0.0634,-0.0905,-0.0926,-0.1041,-0.0861,-0.0838,-0.0816,-0.0895,-0.1042,-0.1043,-0.1431,-0.1435,-0.1438]}],[{"header":{"parameterUnit":"m.s-1","parameterCategory":2,"la1":30.2991,"la2":30.254,"lo1":-89.0895,"lo2":-89.0444,"dy":0.0017,"dx":0.0017,"nx":28,"ny":28,"refTime":"2024-04-12T09:00:00:Z","depth":"2","parameterNumber":2,"parameterNumberName":"U-component_of_CURRENTS"},"data":[0,0,0,0,0,0,0,0,0,0,0,0,0,0,0,0,0,0,0,0,0,0,0,0,0,0,0,0,0,0,0,0,0,0,0,0,0,0,0,0,0,0,0,0,0,0,0,0,0,0,0,0,0,0,0,0,0,0,0.2008,0.2009,0,0.2057,0.2057,0.2057,0.2091,0.2092,0.2093,0.2094,0.2118,0.2117,0.2117,0,0,0,0,0,0,0,0,0,0,0,0,0,0.1885,0.1886,0.2008,0.2009,0.201,0.2057,0.2057,0.2057,0.2091,0.2092,0.2093,0.2094,0.2118,0.2117,0.2117,0,0,0,0,0,0,0,0,0,0,0,0,0,0.1929,0.1887,0.2007,0.2039,0.2043,0.2057,0.2057,0.2057,0.209,0.2092,0.2093,0.2095,0.2118,0.2117,0.2117,0.2084,0,0,0.2116,0.2115,0,0,0,0,0,0,0,0,0.1926,0.1932,0.2033,0.2037,0.2041,0.2077,0.2023,0.2068,0.209,0.2064,0.2094,0.2095,0.2106,0.2106,0.2101,0.2085,0.2086,0.2116,0.2115,0.2115,0.2115,0,0,0,0,0,0,0,0.1923,0.193,0.2019,0.2034,0.204,0.2031,0.2039,0.2031,0.2069,0.2066,0.2071,0.2089,0.2107,0.2101,0.2102,0.2087,0.2116,0.2115,0.2115,0.2115,0.217,0.2171,0,0,0,0,0,0,0.1935,0.1927,0.2018,0.2021,0.1996,0.2033,0.2041,0.2057,0.207,0.2076,0.2087,0.209,0.2101,0.2102,0.2103,0.2196,0.2115,0.2115,0.2114,0.2168,0.217,0.2172,0,0,0,0,0,0,0.1932,0.1943,0.2016,0.1982,0.1992,0.2035,0.2052,0.2057,0.2074,0.2088,0.2092,0.2103,0.2103,0.2104,0.2122,0.2192,0.2114,0.2114,0.2166,0.2169,0.2171,0.2297,0,0,0,0,0,0,0.1928,0.1941,0.1949,0.1983,0.1995,0.2046,0.2051,0.2058,0.2086,0.209,0.2101,0.2104,0.2104,0.2123,0.2122,0.219,0.2114,0.2164,0.2167,0.217,0.2291,0.2304,0.2315,0,0,0,0,0,0.1924,0.1939,0.1949,0.1961,0.2007,0.2047,0.2052,0.2081,0.2086,0.2098,0.2108,0.2105,0.2144,0.2123,0.2121,0.2192,0.2162,0.2166,0.217,0.2285,0.2301,0.2314,0,0,0,0,0,0,0.1896,0.1946,0.1958,0.1989,0.2025,0.2057,0.2073,0.2087,0.2101,0.2112,0.2109,0.2112,0.2164,0.2143,0.212,0.2215,0.2159,0.2163,0.2248,0.2262,0.2274,0.2242,0.2113,0,0,0,0,0,0.1892,0.192,0.1962,0.1993,0.2007,0.2037,0.2054,0.2083,0.2106,0.2114,0.2119,0.2136,0.2172,0.2189,0.2201,0.2233,0.224,0.228,0.2292,0.2303,0.2275,0.2347,0.2364,0.2185,0.2185,0.2184,0,0,0.189,0.1926,0.194,0.1989,0.2013,0.2062,0.205,0.2095,0.2145,0.2112,0.216,0.2171,0.2187,0.2245,0.2267,0.2241,0.237,0.2308,0.2317,0.2282,0.2353,0.2371,0.2386,0.2187,0.2187,0.2186,0,0,0.193,0.1931,0.1978,0.2008,0.2066,0.2085,0.2103,0.2141,0.2161,0.2211,0.2215,0.225,0.2289,0.2316,0.2339,0.2411,0.2429,0.2437,0.2478,0.2551,0.2566,0.258,0.2667,0.2687,0.2447,0.2447,0.2447,0,0.1927,0.1988,0.1997,0.2056,0.208,0.2102,0.2153,0.2186,0.2229,0.2237,0.2249,0.2314,0.2328,0.2402,0.2439,0.2441,0.2487,0.2431,0.2569,0.2582,0.2593,0.2678,0.2699,0.2454,0.2453,0.2452,0.2452,0,0.2019,0.2054,0.208,0.2158,0.2183,0.2226,0.2272,0.2298,0.2324,0.235,0.2412,0.2432,0.2465,0.2504,0.2499,0.2592,0.2604,0.258,0.2536,0.2619,0.2704,0.2723,0.2463,0.2461,0.2459,0.2457,0,0,0.2043,0.2123,0.2134,0.2157,0.2229,0.2253,0.2328,0.2375,0.2417,0.2467,0.2522,0.2586,0.2575,0.2594,0.2605,0.2663,0.2812,0.266,0.2661,0.2753,0.3004,0.2896,0.2906,0.283,0.2832,0.2834,0.3051,0,0.2107,0.2193,0.2232,0.2302,0.2327,0.2353,0.2413,0.2461,0.2504,0.2562,0.2594,0.2659,0.2625,0.2664,0.2715,0.2794,0.2858,0.2756,0.29,0.2903,0.2803,0.2922,0.2668,0.2827,0.3069,0.3073,0.3075,0,0.2187,0.2222,0.2284,0.2326,0.2342,0.2395,0.2443,0.2508,0.2591,0.2629,0.2683,0.2717,0.2813,0.2773,0.2934,0.2882,0.2934,0.2984,0.2994,0.2842,0.2827,0.277,0.2852,0.3106,0.3103,0.3101,0.3099,0,0.2164,0.225,0.2278,0.2299,0.237,0.2395,0.2437,0.2513,0.2575,0.2672,0.2753,0.2829,0.2926,0.2992,0.3084,0.3038,0.3267,0.322,0.3166,0.3162,0.2938,0.2906,0.3308,0.3308,0.3307,0.3306,0.3306,0,0.2194,0.2217,0.2264,0.228,0.2324,0.2373,0.2445,0.2499,0.2613,0.2699,0.2779,0.2877,0.2989,0.3123,0.3155,0.3238,0.3334,0.3184,0.3207,0.2979,0.295,0.3155,0.3134,0.3315,0.3313,0.3311,0.331,0,0.2174,0.2206,0.2239,0.2294,0.2315,0.2344,0.246,0.2521,0.2634,0.2765,0.2815,0.2986,0.3127,0.3228,0.3377,0.335,0.3422,0.3412,0.3141,0.3123,0.3254,0.3238,0.3387,0.3385,0.3383,0.3381,0.338,0,0.2174,0.2184,0.2235,0.2261,0.2291,0.235,0.2404,0.2513,0.2587,0.2812,0.2876,0.3067,0.3146,0.3343,0.3317,0.3371,0.3418,0.3172,0.2986,0.3254,0.3263,0.3248,0.3235,0.2788,0.2782,0.2777,0.2773,0,0.2176,0.2188,0.2219,0.2266,0.2313,0.2361,0.2439,0.2492,0.2633,0.2745,0.2887,0.2976,0.3125,0.305,0.312,0.3099,0.3134,0.3068,0.347,0.2773,0.2696,0.2702,0.2707,0.2729,0.2734,0.2737,0.2739,0.2741,0.2181,0.2195,0.2241,0.227,0.2329,0.2351,0.2338,0.2421,0.2502,0.2582,0.2744,0.2777,0.2834,0.2763,0.2723,0.2696,0.2871,0.2761,0.2774,0.2793,0.265,0.257,0.2557,0.256,0.2562,0.2565,0.2567,0,0.218,0.2206,0.2244,0.2267,0.2274,0.2326,0.235,0.2265,0.2265,0.2403,0.2446,0.2267,0.2258,0.233,0.2216,0.2233,0.219,0.2155,0.208,0.2126,0.2166,0.1987,0.1721,0.1718,0.1716,0.1714,0,0,0.2188,0.22,0.2191,0.2186,0.2204,0.2141,0.2101,0.1984,0.1996,0.1937,0.1959,0.2108,0.2259,0.1941,0.1917,0.1813,0.1951,0.1745,0.2427,0.2384,0.2421,0.2524,0.2302,0,0,0,0,0]},{"header":{"parameterUnit":"m.s-1","parameterCategory":2,"la1":30.2991,"la2":30.254,"lo1":-89.0895,"lo2":-89.0444,"dy":0.0017,"dx":0.0017,"nx":28,"ny":28,"refTime":"2024-04-12T09:00:00:Z","depth":"2","parameterNumber":3,"parameterNumberName":"V-component_of_CURRENTS"},"data":[0,0,0,0,0,0,0,0,0,0,0,0,0,0,0,0,0,0,0,0,0,0,0,0,0,0,0,0,0,0,0,0,0,0,0,0,0,0,0,0,0,0,0,0,0,0,0,0,0,0,0,0,0,0,0,0,0,0,-0.0103,-0.0103,0,-0.018,-0.0181,-0.0181,-0.0229,-0.0229,-0.0229,-0.0229,-0.0312,-0.0314,-0.0316,0,0,0,0,0,0,0,0,0,0,0,0,0,-0.0048,-0.0048,-0.0103,-0.0104,-0.0104,-0.0179,-0.0181,-0.0182,-0.0229,-0.0229,-0.0229,-0.0229,-0.0312,-0.0314,-0.0316,0,0,0,0,0,0,0,0,0,0,0,0,0,-0.0093,-0.0048,-0.0102,-0.0137,-0.014,-0.0179,-0.0181,-0.0182,-0.0229,-0.0229,-0.0229,-0.0229,-0.0311,-0.0314,-0.0317,-0.0329,0,0,-0.0326,-0.0327,0,0,0,0,0,0,0,0,-0.009,-0.0095,-0.0131,-0.0134,-0.0139,-0.0195,-0.0192,-0.0231,-0.0228,-0.0195,-0.0229,-0.023,-0.0273,-0.0279,-0.0293,-0.0333,-0.0337,-0.0326,-0.0328,-0.0329,-0.033,0,0,0,0,0,0,0,-0.0087,-0.0092,-0.0133,-0.0132,-0.0137,-0.0166,-0.0172,-0.02,-0.0232,-0.0198,-0.0202,-0.021,-0.0275,-0.029,-0.0296,-0.0338,-0.0326,-0.0329,-0.0331,-0.0332,-0.0412,-0.0412,0,0,0,0,0,0,-0.0074,-0.0089,-0.0131,-0.0136,-0.0114,-0.0166,-0.0173,-0.0177,-0.0232,-0.024,-0.0209,-0.0212,-0.0285,-0.0292,-0.0299,-0.0345,-0.0329,-0.0332,-0.0334,-0.0411,-0.0412,-0.0412,0,0,0,0,0,0,-0.0072,-0.0076,-0.0128,-0.0114,-0.0123,-0.0166,-0.017,-0.0178,-0.0193,-0.024,-0.0249,-0.0216,-0.0286,-0.0294,-0.033,-0.0347,-0.0334,-0.0336,-0.0411,-0.0411,-0.0412,-0.0419,0,0,0,0,0,0,-0.007,-0.0075,-0.0072,-0.0113,-0.0123,-0.0147,-0.017,-0.0179,-0.0197,-0.0201,-0.0249,-0.0257,-0.0286,-0.0325,-0.0332,-0.0351,-0.0339,-0.0411,-0.0411,-0.0412,-0.0418,-0.042,-0.0421,0,0,0,0,0,-0.0068,-0.0061,-0.0071,-0.0076,-0.0117,-0.0147,-0.0154,-0.0187,-0.0197,-0.0202,-0.024,-0.0255,-0.0334,-0.0328,-0.0337,-0.0357,-0.041,-0.0411,-0.0412,-0.0418,-0.0419,-0.0421,0,0,0,0,0,0,-0.0035,-0.0067,-0.0078,-0.0081,-0.0109,-0.0154,-0.0162,-0.0182,-0.0216,-0.0219,-0.0262,-0.0273,-0.0309,-0.0326,-0.0318,-0.0379,-0.0374,-0.0376,-0.0375,-0.0377,-0.0378,-0.0345,-0.0341,0,0,0,0,0,-0.0025,-0.0029,-0.0065,-0.0068,-0.0079,-0.0119,-0.0134,-0.0155,-0.019,-0.0205,-0.0241,-0.0278,-0.0319,-0.0341,-0.0372,-0.0405,-0.0391,-0.0422,-0.0423,-0.0424,-0.0402,-0.0397,-0.0395,-0.0414,-0.0414,-0.0414,0,0,-0.0013,-0.0031,-0.0034,-0.0061,-0.0086,-0.0112,-0.0129,-0.0148,-0.0173,-0.0208,-0.0248,-0.028,-0.0326,-0.0369,-0.0386,-0.0387,-0.0413,-0.0425,-0.0426,-0.0402,-0.0397,-0.0395,-0.0394,-0.0415,-0.0415,-0.0415,0,0,-0.0001,-0.0007,-0.0013,-0.0036,-0.0068,-0.0096,-0.0098,-0.014,-0.016,-0.0199,-0.0235,-0.0273,-0.0331,-0.0371,-0.04,-0.0421,-0.0415,-0.0433,-0.0421,-0.0418,-0.0416,-0.0414,-0.0398,-0.0394,-0.044,-0.044,-0.044,0,0.0012,0.0,-0.002,-0.0038,-0.0054,-0.0088,-0.0104,-0.0135,-0.0184,-0.0188,-0.0209,-0.0278,-0.0333,-0.0377,-0.0402,-0.0425,-0.0409,-0.0417,-0.0418,-0.0416,-0.0414,-0.0398,-0.0394,-0.044,-0.044,-0.044,-0.044,0,0.0007,-0.0002,-0.0006,-0.0043,-0.0062,-0.0075,-0.0119,-0.0134,-0.016,-0.0185,-0.0213,-0.0278,-0.0305,-0.0351,-0.0396,-0.0413,-0.0402,-0.0416,-0.0412,-0.0412,-0.0396,-0.0391,-0.0441,-0.0441,-0.0441,-0.044,0,0,0.0033,-0.0002,-0.0004,-0.0007,-0.006,-0.0067,-0.0105,-0.013,-0.0112,-0.0177,-0.0153,-0.0271,-0.0268,-0.0299,-0.0349,-0.0376,-0.0382,-0.0393,-0.0393,-0.0371,-0.0353,-0.0405,-0.0405,-0.0392,-0.0391,-0.039,-0.035,0,0.0035,0.0021,-0.0008,-0.0021,-0.0027,-0.0061,-0.0075,-0.0099,-0.0113,-0.0095,-0.0159,-0.0155,-0.0259,-0.0249,-0.0301,-0.0342,-0.0369,-0.039,-0.036,-0.0359,-0.0401,-0.0402,-0.0378,-0.0345,-0.0346,-0.0345,-0.0344,0,0.0033,0.0031,0.0025,0.0026,0.0023,0.0015,0.0029,0.0014,0.0013,0.0017,0.0001,-0.0021,-0.0072,-0.014,-0.0223,-0.0224,-0.0287,-0.0335,-0.0334,-0.037,-0.0403,-0.0345,-0.0337,-0.0337,-0.0337,-0.0338,-0.0339,0,0.0079,0.0056,0.0065,0.0056,0.0043,0.0058,0.0061,0.0062,0.0103,0.0121,0.0187,0.0106,0.0127,0.0019,-0.0113,-0.0147,-0.0178,-0.0232,-0.0338,-0.0341,-0.0308,-0.031,-0.0276,-0.0277,-0.0277,-0.0277,-0.0277,0,0.0098,0.0107,0.0101,0.0111,0.0165,0.0131,0.021,0.0206,0.0261,0.0348,0.0277,0.0338,0.0172,0.0124,-0.0032,-0.0164,-0.0114,-0.0321,-0.0335,-0.0313,-0.0316,-0.0298,-0.0301,-0.0275,-0.0276,-0.0276,-0.0276,0,0.0149,0.013,0.0162,0.0176,0.0191,0.0242,0.0328,0.04,0.0433,0.0558,0.0585,0.0547,0.0454,0.0281,0.0127,-0.0028,-0.0168,-0.0228,-0.0193,-0.0206,-0.0352,-0.0355,-0.0333,-0.0335,-0.0336,-0.0337,-0.0338,0,0.0171,0.0189,0.0238,0.0293,0.031,0.0387,0.0458,0.049,0.0579,0.0681,0.0759,0.0716,0.0669,0.0422,0.0137,-0.0115,-0.0163,-0.024,-0.0338,-0.0342,-0.0357,-0.0359,-0.0361,-0.0286,-0.0286,-0.0287,-0.0287,0,0.0237,0.026,0.03,0.0408,0.049,0.0586,0.0687,0.0759,0.082,0.0911,0.0978,0.0948,0.0724,0.0449,0.0114,-0.0067,-0.0212,-0.0259,-0.023,-0.0299,-0.0301,-0.0315,-0.0318,-0.029,-0.029,-0.0289,-0.0289,-0.0289,0.0302,0.0355,0.0421,0.0509,0.0631,0.0744,0.0787,0.0901,0.0998,0.1096,0.1091,0.1064,0.079,0.0325,0.0043,-0.0243,-0.026,-0.0361,-0.0358,-0.0355,-0.038,-0.0387,-0.0395,-0.0395,-0.0395,-0.0395,-0.0396,0,0.0349,0.0412,0.0517,0.0608,0.0716,0.0787,0.091,0.0946,0.1013,0.1164,0.1188,0.0944,0.0663,0.0371,-0.0057,-0.0331,-0.0344,-0.041,-0.0359,-0.0355,-0.0352,-0.0376,-0.039,-0.039,-0.0391,-0.0391,0,0,0.0381,0.0448,0.0472,0.0618,0.0716,0.0822,0.0862,0.0963,0.1065,0.1147,0.1175,0.1127,0.0777,0.0462,0.0092,-0.0131,-0.0178,-0.0182,-0.0161,-0.0054,-0.0047,-0.0304,-0.0334,0,0,0,0,0]}],[{"header":{"parameterUnit":"m.s-1","parameterCategory":2,"la1":30.2991,"la2":30.254,"lo1":-89.0895,"lo2":-89.0444,"dy":0.0017,"dx":0.0017,"nx":28,"ny":28,"refTime":"2024-04-12T09:00:00:Z","depth":"4","parameterNumber":2,"parameterNumberName":"U-component_of_CURRENTS"},"data":[0,0,0,0,0,0,0,0,0,0,0,0,0,0,0,0,0,0,0,0,0,0,0,0,0,0,0,0,0,0,0,0,0,0,0,0,0,0,0,0,0,0,0,0,0,0,0,0,0,0,0,0,0,0,0,0,0,0,0.101,0.101,0,0.1041,0.1042,0.1042,0.1097,0.1097,0.1098,0.1098,0.1176,0.1178,0.1179,0,0,0,0,0,0,0,0,0,0,0,0,0,0.1001,0.1002,0.101,0.101,0.101,0.1041,0.1042,0.1043,0.1097,0.1097,0.1098,0.1099,0.1176,0.1177,0.1179,0,0,0,0,0,0,0,0,0,0,0,0,0,0.1021,0.1002,0.101,0.1037,0.1039,0.1041,0.1042,0.1043,0.1096,0.1097,0.1098,0.1099,0.1175,0.1177,0.118,0.1177,0,0,0.1187,0.1188,0,0,0,0,0,0,0,0,0.102,0.1022,0.1033,0.1035,0.1038,0.1061,0.1067,0.1088,0.1096,0.108,0.1098,0.1099,0.1138,0.1144,0.1154,0.1181,0.1184,0.1187,0.1188,0.1189,0.119,0,0,0,0,0,0,0,0.1018,0.1021,0.1028,0.1033,0.1036,0.1048,0.1052,0.1071,0.1109,0.1082,0.1084,0.1079,0.1141,0.1152,0.1156,0.1185,0.1187,0.1189,0.119,0.1191,0.1295,0.1296,0,0,0,0,0,0,0.1003,0.1019,0.1027,0.1028,0.1025,0.1047,0.1052,0.1057,0.1108,0.1114,0.1079,0.1082,0.1147,0.1154,0.1159,0.1213,0.1189,0.1191,0.1193,0.1294,0.1295,0.1297,0,0,0,0,0,0,0.1003,0.1004,0.1025,0.102,0.1023,0.1046,0.1051,0.1057,0.1091,0.1104,0.1113,0.1108,0.1148,0.1156,0.1192,0.1215,0.1193,0.1195,0.1292,0.1294,0.1296,0.1287,0,0,0,0,0,0,0.1003,0.1004,0.1018,0.1019,0.1022,0.1036,0.105,0.1057,0.1082,0.1087,0.1131,0.1138,0.1149,0.1189,0.1195,0.1217,0.1196,0.129,0.1293,0.1295,0.1285,0.1288,0.1291,0,0,0,0,0,0.1003,0.1008,0.1019,0.102,0.1036,0.1035,0.1039,0.1061,0.1083,0.1097,0.1128,0.1138,0.121,0.1191,0.1198,0.1222,0.1289,0.1292,0.1295,0.1284,0.1288,0.1291,0,0,0,0,0,0,0.1008,0.1013,0.1026,0.1033,0.1039,0.1043,0.1054,0.1072,0.1109,0.1121,0.1146,0.1154,0.1198,0.1213,0.1192,0.1263,0.1255,0.126,0.1245,0.1248,0.1251,0.1282,0.1198,0,0,0,0,0,0.1014,0.102,0.1027,0.103,0.1037,0.1053,0.1062,0.1075,0.1095,0.1113,0.115,0.1186,0.1212,0.1232,0.126,0.129,0.1335,0.1316,0.1319,0.132,0.1353,0.1435,0.1448,0.1307,0.1307,0.1307,0,0,0.1011,0.1016,0.1019,0.1032,0.1041,0.1042,0.1063,0.1074,0.1087,0.1114,0.1164,0.1198,0.1224,0.1261,0.1283,0.1277,0.138,0.1324,0.1325,0.1358,0.1439,0.1453,0.1466,0.1309,0.1308,0.1308,0,0,0.0981,0.1019,0.1006,0.1025,0.1037,0.1045,0.1053,0.108,0.1111,0.1147,0.1176,0.1228,0.1269,0.1299,0.1313,0.1351,0.1391,0.1363,0.14,0.1477,0.149,0.1502,0.1552,0.1569,0.1363,0.1363,0.1363,0,0.098,0.0976,0.1001,0.1001,0.1019,0.1047,0.1047,0.1073,0.1113,0.1148,0.1164,0.1275,0.1288,0.1346,0.136,0.1358,0.1408,0.1376,0.1481,0.1494,0.1506,0.1555,0.1574,0.1363,0.1363,0.1363,0.1363,0,0.0928,0.0956,0.0954,0.0967,0.0984,0.0997,0.1029,0.1077,0.1122,0.1148,0.1242,0.1293,0.1381,0.1373,0.1375,0.1471,0.1479,0.1472,0.1469,0.1519,0.1568,0.1587,0.1363,0.1363,0.1363,0.1363,0,0,0.0861,0.0909,0.0916,0.0945,0.0984,0.0993,0.1033,0.1076,0.1127,0.1196,0.1292,0.1338,0.142,0.1448,0.1484,0.1532,0.1634,0.1546,0.155,0.1591,0.1808,0.1644,0.1649,0.1654,0.1658,0.1661,0.1798,0,0.0822,0.0826,0.0861,0.089,0.0907,0.0983,0.102,0.107,0.1136,0.1242,0.1327,0.1431,0.1432,0.1518,0.1571,0.1641,0.1691,0.1598,0.1761,0.1766,0.1609,0.1668,0.1673,0.1813,0.1817,0.182,0.1823,0,0.0759,0.0785,0.0799,0.0894,0.091,0.0939,0.1046,0.1082,0.1209,0.1287,0.1423,0.152,0.1665,0.1653,0.1816,0.1768,0.1806,0.1824,0.183,0.1703,0.1638,0.1761,0.1858,0.1855,0.1852,0.185,0.1848,0,0.069,0.0753,0.0773,0.0804,0.0892,0.0946,0.1,0.1098,0.1187,0.1358,0.1454,0.1633,0.1773,0.1866,0.1937,0.1917,0.2073,0.2049,0.1925,0.1913,0.2023,0.201,0.2151,0.2151,0.2151,0.215,0.215,0,0.0639,0.0667,0.0762,0.0782,0.0843,0.0919,0.1032,0.1092,0.1274,0.138,0.1503,0.1642,0.1839,0.1953,0.1994,0.202,0.2139,0.1957,0.1949,0.2011,0.1995,0.2035,0.202,0.2155,0.2154,0.2153,0.2152,0,0.0552,0.0609,0.0655,0.0768,0.081,0.0856,0.1068,0.1171,0.1291,0.1457,0.1544,0.1733,0.1867,0.1972,0.2127,0.2076,0.2117,0.2077,0.2136,0.2124,0.1897,0.188,0.2004,0.2,0.1996,0.1993,0.199,0,0.0502,0.0509,0.0627,0.0701,0.0766,0.0894,0.1001,0.1167,0.1277,0.1487,0.155,0.1749,0.1855,0.1926,0.2035,0.21,0.2052,0.206,0.1983,0.1908,0.1889,0.1878,0.1866,0.1985,0.1984,0.1983,0.1982,0,0.0416,0.0464,0.0509,0.0637,0.0758,0.0904,0.1052,0.1134,0.1322,0.1462,0.1569,0.1663,0.1771,0.1882,0.1916,0.1951,0.2063,0.2021,0.2029,0.1957,0.1886,0.1868,0.1861,0.1969,0.1971,0.1972,0.1973,0,0.036,0.0383,0.0462,0.0575,0.0707,0.0833,0.0953,0.1105,0.1222,0.1424,0.1482,0.1616,0.1788,0.1803,0.1848,0.186,0.1844,0.1786,0.1806,0.1821,0.1689,0.1567,0.1569,0,0,0,0,0,0.0316,0.0348,0.0431,0.0541,0.0667,0.0754,0.0943,0.1077,0.1245,0.1289,0.1388,0.1481,0.1573,0.1647,0.1627,0.1753,0.1832,0.1719,0.1769,0.1897,0.1912,0.1769,0,0,0,0,0,0,0.0299,0.0345,0.0382,0.0459,0.0551,0.0687,0.0804,0.0952,0.0982,0.1164,0.122,0.137,0.1471,0.1563,0.1589,0.1612,0.161,0.1823,0.1819,0.1889,0.1902,0.1914,0.1773,0,0,0,0,0]},{"header":{"parameterUnit":"m.s-1","parameterCategory":2,"la1":30.2991,"la2":30.254,"lo1":-89.0895,"lo2":-89.0444,"dy":0.0017,"dx":0.0017,"nx":28,"ny":28,"refTime":"2024-04-12T09:00:00:Z","depth":"4","parameterNumber":3,"parameterNumberName":"V-component_of_CURRENTS"},"data":[0,0,0,0,0,0,0,0,0,0,0,0,0,0,0,0,0,0,0,0,0,0,0,0,0,0,0,0,0,0,0,0,0,0,0,0,0,0,0,0,0,0,0,0,0,0,0,0,0,0,0,0,0,0,0,0,0,0,-0.0047,-0.0047,0,-0.0098,-0.0098,-0.0099,-0.0146,-0.0147,-0.0147,-0.0148,-0.0215,-0.0217,-0.0218,0,0,0,0,0,0,0,0,0,0,0,0,0,-0.0017,-0.0017,-0.0047,-0.0047,-0.0048,-0.0098,-0.0098,-0.0099,-0.0146,-0.0147,-0.0147,-0.0148,-0.0215,-0.0217,-0.0218,0,0,0,0,0,0,0,0,0,0,0,0,0,-0.0046,-0.0017,-0.0046,-0.0077,-0.008,-0.0097,-0.0098,-0.0099,-0.0146,-0.0147,-0.0147,-0.0148,-0.0215,-0.0216,-0.0218,-0.0214,0,0,-0.0224,-0.0225,0,0,0,0,0,0,0,0,-0.0044,-0.0047,-0.0072,-0.0075,-0.0078,-0.0116,-0.0113,-0.0138,-0.0146,-0.0121,-0.0148,-0.0149,-0.0183,-0.0187,-0.0196,-0.0217,-0.022,-0.0225,-0.0226,-0.0227,-0.0227,0,0,0,0,0,0,0,-0.0042,-0.0045,-0.0067,-0.0072,-0.0076,-0.0097,-0.0102,-0.0118,-0.0148,-0.0124,-0.0127,-0.0132,-0.0185,-0.0194,-0.0198,-0.0221,-0.0224,-0.0226,-0.0227,-0.0228,-0.024,-0.0239,0,0,0,0,0,0,-0.0032,-0.0043,-0.0066,-0.0069,-0.0062,-0.0097,-0.0102,-0.0103,-0.0147,-0.0154,-0.0131,-0.0134,-0.019,-0.0195,-0.02,-0.0162,-0.0227,-0.0228,-0.0229,-0.0241,-0.0239,-0.0239,0,0,0,0,0,0,-0.0031,-0.0034,-0.0064,-0.0057,-0.0062,-0.0096,-0.0097,-0.0104,-0.0116,-0.0153,-0.016,-0.0136,-0.0191,-0.0197,-0.0207,-0.0166,-0.0229,-0.0231,-0.0242,-0.024,-0.0239,-0.0109,0,0,0,0,0,0,-0.003,-0.0033,-0.003,-0.0056,-0.0062,-0.0061,-0.0097,-0.0104,-0.0117,-0.0121,-0.0159,-0.0166,-0.0192,-0.0204,-0.0209,-0.017,-0.0233,-0.0243,-0.0241,-0.0239,-0.0114,-0.0103,-0.0094,0,0,0,0,0,-0.0029,-0.0016,-0.0029,-0.0032,-0.0057,-0.006,-0.0064,-0.0092,-0.0116,-0.0109,-0.0138,-0.0165,-0.0197,-0.0204,-0.0211,-0.0172,-0.0243,-0.0241,-0.024,-0.0119,-0.0105,-0.0094,0,0,0,0,0,0,-0.0003,-0.002,-0.0035,-0.0029,-0.0039,-0.0067,-0.0063,-0.0088,-0.0106,-0.011,-0.0154,-0.0162,-0.0156,-0.0188,-0.0195,-0.0174,-0.0225,-0.0224,-0.0131,-0.0119,-0.0109,-0.0092,-0.0234,0,0,0,0,0,0.0006,0.0014,-0.001,-0.0002,-0.0005,-0.0035,-0.0041,-0.0057,-0.0078,-0.0087,-0.0116,-0.0142,-0.0152,-0.0155,-0.0176,-0.0161,-0.0223,-0.0143,-0.0133,-0.0124,-0.0116,-0.0188,-0.0183,-0.0232,-0.0232,-0.0232,0,0,0.0018,0.0011,0.0013,0.0005,-0.0006,0.0019,-0.004,-0.0038,-0.001,-0.009,-0.0068,-0.0111,-0.0144,-0.0126,-0.0125,-0.0146,-0.0141,-0.0121,-0.0113,-0.0111,-0.0185,-0.0181,-0.0177,-0.0231,-0.0231,-0.0231,0,0,0.0067,0.0042,0.0073,0.0074,0.0068,0.0055,0.0059,0.0036,0.0032,0.0042,-0.0005,-0.0022,-0.0044,-0.005,-0.0058,-0.0006,-0.009,-0.002,0.0057,-0.0012,-0.0009,-0.0006,-0.0071,-0.0075,-0.0007,-0.0007,-0.0007,0,0.0082,0.0117,0.0082,0.0119,0.0127,0.008,0.0121,0.0122,0.01,0.0099,0.0067,0.0026,0.0003,0.0025,0.0047,0.0023,-0.0046,0.002,0.0002,0.0003,0.0003,-0.0064,-0.0071,-0.0001,-0.0001,-0.0002,-0.0003,0,0.0164,0.0188,0.0208,0.0241,0.0247,0.0271,0.0266,0.0272,0.0249,0.0233,0.0228,0.0181,0.015,0.0149,0.0121,0.012,0.0061,0.0019,-0.0024,0.0016,-0.0057,-0.0067,0.0009,0.0006,0.0004,0.0003,0,0,0.0199,0.0255,0.0262,0.0287,0.031,0.0316,0.0374,0.0391,0.0393,0.0382,0.037,0.038,0.0314,0.0299,0.0249,0.0205,0.0161,0.0119,0.0112,0.0064,-0.0007,-0.0007,-0.0018,0.0097,0.0096,0.0096,-0.0055,0,0.0272,0.0358,0.0372,0.0445,0.0478,0.0464,0.0511,0.0518,0.0489,0.0462,0.043,0.0391,0.0386,0.0336,0.0311,0.0168,0.0139,0.0205,-0.0047,-0.0054,-0.0052,-0.0027,0.0092,-0.0063,-0.0065,-0.0067,-0.0068,0,0.0349,0.0389,0.0478,0.0523,0.0535,0.0576,0.0588,0.0618,0.0591,0.056,0.053,0.0454,0.0414,0.0368,0.0228,0.0255,0.0154,0.0057,0.0048,-0.0003,-0.007,-0.0118,-0.0086,-0.0085,-0.0084,-0.0082,-0.0081,0,0.037,0.0457,0.0523,0.0544,0.0596,0.0628,0.0649,0.0643,0.064,0.0587,0.0533,0.0486,0.0402,0.0299,0.0145,0.0157,-0.0057,-0.0071,-0.0148,-0.0151,-0.0165,-0.0166,-0.016,-0.016,-0.016,-0.0159,-0.0159,0,0.0428,0.0474,0.0536,0.0566,0.0615,0.0647,0.0672,0.0674,0.065,0.0622,0.0568,0.0502,0.0367,0.0233,0.0126,-0.0038,-0.0063,-0.013,-0.0185,-0.0106,-0.0099,-0.0172,-0.0171,-0.0165,-0.0164,-0.0163,-0.0162,0,0.0429,0.0487,0.0544,0.0609,0.0625,0.0648,0.0679,0.0676,0.0662,0.0606,0.058,0.0473,0.0314,0.0182,-0.0033,-0.0084,-0.0238,-0.0287,-0.0194,-0.0245,-0.0279,-0.027,-0.0381,-0.0382,-0.0383,-0.0384,-0.0385,0,0.0437,0.0471,0.0542,0.0555,0.0582,0.0622,0.0638,0.0669,0.0656,0.0588,0.0546,0.0392,0.0314,0.0035,-0.0096,-0.0289,-0.0301,-0.0377,-0.0293,-0.0256,-0.03,-0.0289,-0.0279,-0.0386,-0.0387,-0.0387,-0.0387,0,0.0416,0.0443,0.0479,0.0508,0.0535,0.0568,0.0597,0.0597,0.0613,0.0597,0.0505,0.0379,0.0197,0.0031,-0.013,-0.026,-0.0325,-0.0387,-0.0384,-0.0306,-0.0264,-0.0304,-0.0293,-0.0391,-0.039,-0.039,-0.039,0,0.0369,0.0377,0.0416,0.0441,0.0475,0.05,0.0535,0.054,0.055,0.0517,0.0478,0.0323,0.0239,0.004,-0.0109,-0.0235,-0.0244,-0.0262,-0.0266,-0.0264,-0.0167,-0.0093,-0.021,0,0,0,0,0,0.0313,0.0319,0.0336,0.0376,0.0415,0.0448,0.0491,0.0528,0.0561,0.0505,0.0509,0.0361,0.0155,0.0056,-0.0068,-0.0138,-0.0286,-0.0289,-0.0313,-0.0409,-0.0405,-0.0309,0,0,0,0,0,0,0.0269,0.0285,0.0312,0.0321,0.0345,0.039,0.0432,0.0458,0.045,0.0466,0.0361,0.0339,0.0135,0.0227,-0.007,-0.0111,-0.014,-0.0376,-0.0378,-0.0411,-0.0408,-0.0405,-0.0304,0,0,0,0,0]}]]